This demonstration page uses our WeatherBlox Daily Observations layout. Learn more.

Left ArrowRight Arrow

39.95238, -75.16362

Hourly Observations for May 21, 2018

Temp ( °F °C ) Dew Point ( °F °C ) Humidity (%) Winds ( mph kmh ) Pressure ( in mb ) Visibility ( mi km ) Precip ( " mm )
12:54 am 00:54 Cloudy 69 20.6 58 14.4 68 68 N 9 15 30.09 1019 10 16 0.00 0.00
1:54 am 01:54 Partly Cloudy 66 18.9 57 13.9 73 73 NNE 6 9 30.10 1019 10 16 0.00 0.00
2:54 am 02:54 Partly Cloudy 66 18.9 56 13.3 70 70 N 10 17 30.11 1020 10 16 0.00 0.00
3:54 am 03:54 Partly Cloudy 65 18.3 55 12.8 70 70 N 9 15 30.13 1020 10 16 0.00 0.00
4:54 am 04:54 Cloudy 63 17.2 55 12.8 76 76 N 7 11 30.14 1021 10 16 0.00 0.00
5:54 am 05:54 Mostly Cloudy 62 16.7 55 12.8 78 78 N 8 13 30.16 1021 10 16 0.00 0.00
6:54 am 06:54 Partly Cloudy 64 17.8 55 12.8 73 73 N 9 15 30.18 1022 10 16 0.00 0.00
7:54 am 07:54 Partly Cloudy 65 18.3 54 12.2 68 68 N 15 24 30.19 1022 10 16 0.00 0.00
8:54 am 08:54 Partly Cloudy 68 20 51 10.6 55 55 N 13 20 30.19 1023 10 16 0.00 0.00
9:54 am 09:54 Partly Cloudy 70 21.1 51 10.6 51 51 N 10 17 30.21 1023 10 16 0.00 0.00
10:54 am 10:54 Partly Cloudy 71 21.7 51 10.6 49 49 N 13 20 30.21 1023 10 16 0.00 0.00
11:54 am 11:54 Partly Cloudy 72 22.2 50 10 46 46 Calm 30.21 1023 10 16 0.00 0.00
12:54 pm 12:54 Partly Cloudy 75 23.9 51 10.6 43 43 NNE 6 9 30.19 1022 10 16 0.00 0.00
1:54 pm 13:54 Mostly Sunny 77 25 51 10.6 40 40 VRB 6 9 30.17 1022 10 16 0.00 0.00
2:54 pm 14:54 Partly Cloudy 76 24.4 52 11.1 43 43 SE 7 11 30.15 1021 10 16 0.00 0.00
3:54 pm 15:54 Partly Cloudy 77 25 51 10.6 40 40 S 6 9 30.14 1021 10 16 0.00 0.00
4:54 pm 16:54 Partly Cloudy 78 25.6 50 10 37 37 Calm 30.13 1020 10 16 0.00 0.00
5:54 pm 17:54 Mostly Cloudy 77 25 47 8.3 35 35 SSW 5 7 30.13 1020 10 16 0.00 0.00
6:54 pm 18:54 Cloudy 76 24.4 52 11.1 43 43 S 5 7 30.13 1020 10 16 0.00 0.00
7:54 pm 19:54 Mostly Cloudy 72 22.2 57 13.9 59 59 S 7 11 30.15 1021 10 16 0.00 0.00
8:54 pm 20:54 Partly Cloudy 68 20 53 11.7 59 59 SSE 8 13 30.16 1021 10 16 0.00 0.00
9:54 pm 21:54 Mostly Clear 64 17.8 52 11.1 65 65 SE 6 9 30.17 1022 10 16 0.00 0.00
10:54 pm 22:54 Partly Cloudy 64 17.8 53 11.7 68 68 S 6 9 30.17 1022 10 16 0.00 0.00
11:54 pm 23:54 Partly Cloudy 63 17.2 52 11.1 68 68 SSW 5 7 30.17 1022 10 16 0.00 0.00

Powered by AerisWeather